[[{"header":{"parameterUnit":"m.s-1","parameterCategory":2,"la1":30.2991,"la2":30.254,"lo1":-89.0895,"lo2":-89.0444,"dy":0.0017,"dx":0.0017,"nx":28,"ny":28,"refTime":"2025-02-10T03:00:00:Z","depth":"0","parameterNumber":2,"parameterNumberName":"U-component_of_CURRENTS"},"data":[0,0,0,0,0,0,0,0,0,0,0,0,0,0,0,0,0,0,0,0,0,0,0,0,0,0,0,0,0,0,0,0,0,0,0,0,0,0,0,0,0,0,0,0,0,0,0,0,0,0,0,0,0,0,0,0,0,0,0.1979,0.1979,0,0.1947,0.1947,0.1946,0.1896,0.1896,0.1895,0.1894,0.1832,0.1831,0.183,0,0,0,0,0,0,0,0,0,0,0,0,0,0.2092,0.209,0.1979,0.1979,0.1979,0.1947,0.1947,0.1946,0.1897,0.1896,0.1895,0.1894,0.1832,0.1831,0.183,0,0,0,0,0,0,0,0,0,0,0,0,0,0.2048,0.2089,0.1979,0.1952,0.1949,0.1948,0.1947,0.1946,0.1897,0.1896,0.1895,0.1894,0.1833,0.1831,0.183,0.1842,0,0,0.1825,0.1824,0,0,0,0,0,0,0,0,0.205,0.2043,0.1956,0.1954,0.1951,0.1927,0.1964,0.191,0.1897,0.1914,0.1894,0.1893,0.1863,0.1859,0.1853,0.1839,0.1836,0.1825,0.1824,0.1823,0.1823,0,0,0,0,0,0,0,0.2053,0.2045,0.1964,0.1956,0.1953,0.1974,0.1965,0.1954,0.1893,0.1913,0.191,0.191,0.1861,0.1854,0.1851,0.1835,0.1825,0.1824,0.1823,0.1822,0.1922,0.1926,0,0,0,0,0,0,0.2057,0.2047,0.1966,0.1964,0.2001,0.1972,0.1963,0.1934,0.1894,0.1887,0.1911,0.1908,0.1857,0.1853,0.1848,0.1913,0.1823,0.1822,0.1821,0.1919,0.1923,0.1927,0,0,0,0,0,0,0.2059,0.2049,0.1967,0.2009,0.2,0.1971,0.1939,0.1934,0.1939,0.1893,0.1885,0.1923,0.1856,0.1851,0.1872,0.1908,0.1821,0.182,0.1915,0.192,0.1925,0.2009,0,0,0,0,0,0,0.2062,0.2049,0.2046,0.2008,0.1998,0.1996,0.194,0.1934,0.1941,0.1937,0.1901,0.1893,0.1855,0.1875,0.1871,0.1904,0.1819,0.191,0.1917,0.1923,0.2001,0.2016,0.2029,0,0,0,0,0,0.2065,0.2068,0.2045,0.2037,0.1987,0.1999,0.1997,0.1972,0.1943,0.1968,0.1945,0.1895,0.1915,0.1876,0.1871,0.1905,0.1907,0.1915,0.1923,0.1995,0.2013,0.2028,0,0,0,0,0,0,0.2117,0.2062,0.2036,0.202,0.2024,0.1992,0.2014,0.1989,0.1989,0.1986,0.193,0.1923,0.1957,0.1935,0.1894,0.1962,0.1907,0.1914,0.1964,0.1981,0.1994,0.2033,0.1818,0,0,0,0,0,0.2126,0.211,0.2076,0.2071,0.2075,0.2047,0.2052,0.2037,0.2025,0.2022,0.1991,0.1979,0.1986,0.1986,0.1985,0.2016,0.2034,0.2043,0.2057,0.2068,0.2102,0.2163,0.2185,0.1953,0.1953,0.1953,0,0,0.2142,0.2115,0.2104,0.2083,0.2079,0.2111,0.2048,0.207,0.2098,0.2017,0.2047,0.2022,0.2008,0.2044,0.2058,0.2027,0.2149,0.2078,0.2087,0.2116,0.2174,0.2196,0.2216,0.1959,0.1958,0.1957,0,0,0.2193,0.215,0.2166,0.2178,0.2186,0.2174,0.2187,0.2168,0.2165,0.2194,0.2147,0.2156,0.2153,0.215,0.215,0.2249,0.222,0.2245,0.2337,0.2395,0.2414,0.2431,0.2493,0.2515,0.2249,0.225,0.225,0,0.2219,0.222,0.2184,0.2223,0.2243,0.2209,0.2258,0.2262,0.2252,0.2264,0.2226,0.2247,0.2213,0.227,0.2297,0.2277,0.2309,0.2261,0.2411,0.2428,0.2444,0.2503,0.2526,0.2254,0.2254,0.2253,0.2253,0,0.2288,0.2302,0.2325,0.2348,0.2375,0.2412,0.2414,0.2437,0.2419,0.2412,0.2457,0.2421,0.2435,0.2423,0.2383,0.248,0.2467,0.2417,0.236,0.2472,0.2528,0.2551,0.2262,0.226,0.2258,0.2257,0,0,0.2293,0.2356,0.2363,0.2395,0.244,0.246,0.2532,0.2573,0.261,0.261,0.2663,0.2665,0.2632,0.2634,0.2583,0.2623,0.2741,0.2574,0.2574,0.2622,0.289,0.3022,0.3058,0.2712,0.2716,0.2719,0.2886,0,0.2355,0.2438,0.2461,0.2551,0.2589,0.2607,0.2668,0.2707,0.2724,0.2767,0.2759,0.2787,0.2718,0.2715,0.2755,0.2735,0.2804,0.2702,0.2789,0.2793,0.2884,0.3091,0.3037,0.3196,0.2908,0.2911,0.2914,0,0.2399,0.245,0.254,0.2624,0.2645,0.2695,0.2774,0.2832,0.29,0.2917,0.2965,0.2948,0.3009,0.2923,0.3013,0.2951,0.2954,0.2942,0.2946,0.3063,0.2969,0.3039,0.3246,0.3128,0.2948,0.2945,0.2943,0,0.2386,0.2495,0.2561,0.2593,0.2691,0.2733,0.2786,0.2863,0.2906,0.3013,0.3049,0.3125,0.3146,0.3187,0.3177,0.3103,0.3284,0.3165,0.3304,0.331,0.3285,0.3286,0.3381,0.3277,0.3277,0.3276,0.3276,0,0.2412,0.2462,0.2551,0.2585,0.2659,0.2733,0.2814,0.2881,0.2974,0.3064,0.3112,0.3202,0.3214,0.3298,0.328,0.3411,0.3381,0.3402,0.3399,0.3318,0.3319,0.3228,0.3159,0.3282,0.3281,0.328,0.3279,0,0.2372,0.2438,0.2507,0.2614,0.2645,0.269,0.28,0.2857,0.2964,0.3089,0.313,0.327,0.3443,0.3475,0.3561,0.3558,0.3574,0.3683,0.3607,0.3598,0.3632,0.357,0.3597,0.3475,0.3889,0.3893,0.3897,0,0.2356,0.2387,0.2494,0.2527,0.2569,0.2648,0.27,0.2824,0.2907,0.315,0.3216,0.3426,0.3594,0.3811,0.3895,0.4001,0.3768,0.3976,0.3845,0.3726,0.365,0.3435,0.3308,0.3821,0.3825,0.3827,0.3829,0,0.2317,0.2347,0.24,0.2472,0.2524,0.2597,0.27,0.2748,0.2946,0.3073,0.3298,0.3459,0.3791,0.3935,0.4132,0.4167,0.3829,0.4039,0.3911,0.367,0.3442,0.3289,0.3606,0.3852,0.385,0.3848,0.3847,0.3846,0.2264,0.2286,0.2353,0.2407,0.247,0.2534,0.2559,0.2709,0.2838,0.3039,0.327,0.3484,0.3814,0.4135,0.416,0.4198,0.4074,0.4055,0.4009,0.3813,0.3664,0.4088,0.4337,0.4338,0.4338,0.4338,0.4339,0,0.2199,0.2243,0.2293,0.2354,0.2378,0.245,0.2552,0.2572,0.2705,0.2966,0.3162,0.3493,0.3747,0.3959,0.4208,0.4128,0.3852,0.4004,0.3615,0.3499,0.3892,0.3858,0.4019,0.4019,0.4019,0.4019,0.4019,0.4019,0.2175,0.2195,0.2228,0.2244,0.2283,0.2281,0.2312,0.2383,0.2532,0.2747,0.2945,0.3163,0.3631,0.4027,0.4076,0.3984,0.3595,0.3549,0.3419,0.3638,0.3632,0.3627,0.3576,0.3676,0.3675,0.2854,0.2849,0.2844]},{"header":{"parameterUnit":"m.s-1","parameterCategory":2,"la1":30.2991,"la2":30.254,"lo1":-89.0895,"lo2":-89.0444,"dy":0.0017,"dx":0.0017,"nx":28,"ny":28,"refTime":"2025-02-10T03:00:00:Z","depth":"0","parameterNumber":3,"parameterNumberName":"V-component_of_CURRENTS"},"data":[0,0,0,0,0,0,0,0,0,0,0,0,0,0,0,0,0,0,0,0,0,0,0,0,0,0,0,0,0,0,0,0,0,0,0,0,0,0,0,0,0,0,0,0,0,0,0,0,0,0,0,0,0,0,0,0,0,0,-0.0488,-0.0488,0,-0.0552,-0.0553,-0.0554,-0.0563,-0.0562,-0.0562,-0.0561,-0.0651,-0.0654,-0.0657,0,0,0,0,0,0,0,0,0,0,0,0,0,-0.0381,-0.0383,-0.0488,-0.0488,-0.0489,-0.0552,-0.0553,-0.0554,-0.0563,-0.0562,-0.0561,-0.0561,-0.065,-0.0654,-0.0658,0,0,0,0,0,0,0,0,0,0,0,0,0,-0.0435,-0.0384,-0.0488,-0.0501,-0.0503,-0.0552,-0.0553,-0.0554,-0.0563,-0.0562,-0.0561,-0.056,-0.0649,-0.0654,-0.0658,-0.0704,0,0,-0.0672,-0.0674,0,0,0,0,0,0,0,0,-0.0432,-0.0439,-0.0498,-0.05,-0.0502,-0.0548,-0.0549,-0.0606,-0.0563,-0.0541,-0.0561,-0.056,-0.062,-0.0627,-0.0641,-0.0709,-0.0712,-0.0672,-0.0675,-0.0677,-0.0678,0,0,0,0,0,0,0,-0.0428,-0.0436,-0.0513,-0.0499,-0.0502,-0.0507,-0.0513,-0.0559,-0.0585,-0.0542,-0.0543,-0.055,-0.0621,-0.0637,-0.0643,-0.0714,-0.0672,-0.0676,-0.0679,-0.0681,-0.0843,-0.0845,0,0,0,0,0,0,-0.0421,-0.0433,-0.0511,-0.0515,-0.0464,-0.051,-0.0517,-0.0535,-0.0584,-0.0591,-0.0551,-0.055,-0.0629,-0.0638,-0.0646,-0.0717,-0.0677,-0.0681,-0.0684,-0.0842,-0.0844,-0.0846,0,0,0,0,0,0,-0.0418,-0.0428,-0.0509,-0.0474,-0.0485,-0.0512,-0.0532,-0.0536,-0.0552,-0.059,-0.0597,-0.0562,-0.0629,-0.064,-0.0693,-0.0719,-0.0683,-0.0687,-0.084,-0.0842,-0.0845,-0.0849,0,0,0,0,0,0,-0.0415,-0.0427,-0.0438,-0.0474,-0.0487,-0.0535,-0.0533,-0.0538,-0.0558,-0.0557,-0.0602,-0.0609,-0.0629,-0.0686,-0.0697,-0.0725,-0.0691,-0.0838,-0.0841,-0.0844,-0.0847,-0.0852,-0.0855,0,0,0,0,0,-0.0411,-0.0421,-0.0438,-0.0447,-0.0501,-0.0536,-0.0543,-0.0558,-0.0559,-0.0569,-0.0603,-0.0608,-0.0713,-0.0691,-0.0704,-0.0733,-0.0836,-0.084,-0.0844,-0.0845,-0.0851,-0.0855,0,0,0,0,0,0,-0.0371,-0.0424,-0.0443,-0.0467,-0.0501,-0.0537,-0.0542,-0.0562,-0.0598,-0.0594,-0.0631,-0.0642,-0.0697,-0.072,-0.0694,-0.0791,-0.0776,-0.0782,-0.0773,-0.0778,-0.0782,-0.0751,-0.0694,0,0,0,0,0,-0.0372,-0.0398,-0.0446,-0.0465,-0.0479,-0.0515,-0.0531,-0.0546,-0.0581,-0.0594,-0.0632,-0.0675,-0.0725,-0.0752,-0.0793,-0.085,-0.0867,-0.0878,-0.0883,-0.0886,-0.0871,-0.0933,-0.0941,-0.0858,-0.0858,-0.0858,0,0,-0.036,-0.0393,-0.0407,-0.0459,-0.0482,-0.0499,-0.0522,-0.0543,-0.0563,-0.0601,-0.064,-0.069,-0.0743,-0.0801,-0.0829,-0.0822,-0.0921,-0.089,-0.0893,-0.0875,-0.0937,-0.0945,-0.0952,-0.086,-0.086,-0.0859,0,0,-0.0338,-0.038,-0.0388,-0.0417,-0.0456,-0.0485,-0.0493,-0.054,-0.0564,-0.0616,-0.0652,-0.0717,-0.0785,-0.0835,-0.0868,-0.0924,-0.0939,-0.0942,-0.0942,-0.1003,-0.101,-0.1016,-0.1053,-0.1062,-0.0947,-0.0947,-0.0947,0,-0.0316,-0.034,-0.0394,-0.0404,-0.0418,-0.0477,-0.0478,-0.0522,-0.0583,-0.0609,-0.0622,-0.0746,-0.08,-0.0879,-0.0903,-0.0933,-0.0957,-0.0916,-0.1007,-0.1013,-0.1019,-0.1055,-0.1065,-0.0948,-0.0948,-0.0948,-0.0947,0,-0.03,-0.0316,-0.0319,-0.0358,-0.0386,-0.0396,-0.046,-0.0499,-0.0542,-0.0588,-0.0672,-0.0758,-0.0823,-0.0872,-0.0906,-0.0987,-0.0987,-0.1001,-0.0986,-0.1027,-0.1063,-0.1074,-0.0949,-0.0948,-0.0948,-0.0948,0,0,-0.0242,-0.0296,-0.0292,-0.0298,-0.0358,-0.0374,-0.0422,-0.048,-0.0498,-0.0594,-0.0629,-0.0761,-0.0807,-0.0848,-0.0918,-0.099,-0.1074,-0.1013,-0.1016,-0.1034,-0.1192,-0.1116,-0.112,-0.1103,-0.1105,-0.1106,-0.12,0,-0.0202,-0.0203,-0.0248,-0.0247,-0.025,-0.032,-0.0353,-0.0419,-0.0482,-0.0537,-0.0659,-0.0715,-0.0799,-0.083,-0.0924,-0.1024,-0.11,-0.1045,-0.1161,-0.1164,-0.108,-0.1129,-0.0988,-0.1053,-0.1211,-0.1212,-0.1214,0,-0.0161,-0.0169,-0.0158,-0.0188,-0.0193,-0.0207,-0.026,-0.0298,-0.0403,-0.0449,-0.0546,-0.0626,-0.0757,-0.0811,-0.1014,-0.0971,-0.108,-0.1166,-0.1172,-0.1099,-0.1106,-0.1039,-0.1066,-0.1273,-0.1229,-0.1228,-0.1227,0,-0.0084,-0.01,-0.0087,-0.0097,-0.0147,-0.0155,-0.0184,-0.0268,-0.0286,-0.0387,-0.0395,-0.0569,-0.0622,-0.0803,-0.0982,-0.1002,-0.118,-0.1228,-0.1267,-0.1262,-0.116,-0.1142,-0.1382,-0.1369,-0.1369,-0.1369,-0.1369,0,-0.0026,-0.001,-0.0046,-0.0037,-0.0014,-0.0079,-0.0068,-0.0122,-0.0181,-0.0161,-0.0334,-0.0339,-0.0621,-0.0753,-0.0948,-0.1116,-0.1155,-0.1263,-0.1284,-0.1158,-0.114,-0.1328,-0.1463,-0.1372,-0.1372,-0.1371,-0.137,0,0.005,0.0025,0.0046,0.002,0.0023,0.0037,0.0028,0.0041,-0.0027,-0.0001,-0.0019,-0.0175,-0.0321,-0.0589,-0.0856,-0.1026,-0.1307,-0.1273,-0.109,-0.1087,-0.1309,-0.1446,-0.1679,-0.1769,-0.134,-0.1339,-0.1338,0,0.0083,0.0101,0.0111,0.0141,0.0136,0.0153,0.0182,0.0126,0.0162,0.0132,0.0174,0.0034,0.0011,-0.0361,-0.0682,-0.099,-0.124,-0.1098,-0.1122,-0.1301,-0.1472,-0.1581,-0.165,-0.1004,-0.1,-0.0997,-0.0995,0,0.0153,0.0158,0.0181,0.0254,0.0297,0.0342,0.0389,0.0445,0.0425,0.0487,0.0562,0.0545,0.0225,0.0011,-0.043,-0.0677,-0.1196,-0.1042,-0.1291,-0.1275,-0.1348,-0.1447,-0.0964,-0.0967,-0.097,-0.0972,-0.0974,-0.0975,0.0219,0.0258,0.0306,0.0381,0.0444,0.055,0.0643,0.0734,0.0862,0.102,0.0943,0.1035,0.0632,0.008,-0.0294,-0.0906,-0.1008,-0.108,-0.1245,-0.1351,-0.1401,-0.0838,-0.0823,-0.0825,-0.0826,-0.0828,-0.0829,0,0.0315,0.0362,0.0434,0.0543,0.0662,0.0655,0.0808,0.0948,0.1195,0.135,0.1485,0.1396,0.0914,0.0285,-0.0521,-0.0992,-0.1227,-0.1309,-0.1464,-0.1539,-0.1074,-0.1019,-0.0967,-0.0967,-0.0966,-0.0966,-0.0966,-0.0966,0.0369,0.047,0.0512,0.0729,0.0818,0.1011,0.1127,0.1351,0.1517,0.181,0.1924,0.1945,0.1481,-0.0008,-0.1053,-0.1339,-0.1758,-0.1788,-0.2079,-0.1784,-0.1776,-0.1769,-0.1751,-0.1854,-0.1855,-0.2416,-0.2422,-0.2427]}],[{"header":{"parameterUnit":"m.s-1","parameterCategory":2,"la1":30.2991,"la2":30.254,"lo1":-89.0895,"lo2":-89.0444,"dy":0.0017,"dx":0.0017,"nx":28,"ny":28,"refTime":"2025-02-10T03:00:00:Z","depth":"2","parameterNumber":2,"parameterNumberName":"U-component_of_CURRENTS"},"data":[0,0,0,0,0,0,0,0,0,0,0,0,0,0,0,0,0,0,0,0,0,0,0,0,0,0,0,0,0,0,0,0,0,0,0,0,0,0,0,0,0,0,0,0,0,0,0,0,0,0,0,0,0,0,0,0,0,0,0.2437,0.2439,0,0.2508,0.2508,0.2508,0.2541,0.2542,0.2543,0.2544,0.2636,0.2637,0.2639,0,0,0,0,0,0,0,0,0,0,0,0,0,0.2261,0.2264,0.2437,0.2439,0.244,0.2508,0.2508,0.2508,0.2541,0.2542,0.2543,0.2544,0.2635,0.2637,0.2639,0,0,0,0,0,0,0,0,0,0,0,0,0,0.2327,0.2265,0.2437,0.2471,0.2476,0.2508,0.2508,0.2509,0.2541,0.2542,0.2543,0.2544,0.2635,0.2637,0.264,0.2633,0,0,0.2648,0.2649,0,0,0,0,0,0,0,0,0.2324,0.2333,0.2465,0.2469,0.2474,0.2525,0.2481,0.2554,0.2541,0.2507,0.2544,0.2545,0.2606,0.2611,0.2608,0.2637,0.2641,0.2648,0.2649,0.2651,0.2651,0,0,0,0,0,0,0,0.2319,0.2329,0.2456,0.2467,0.2473,0.2461,0.2471,0.2494,0.2542,0.251,0.2515,0.2537,0.2607,0.2606,0.2611,0.2643,0.2648,0.265,0.2652,0.2653,0.2717,0.2717,0,0,0,0,0,0,0.2331,0.2326,0.2454,0.2459,0.241,0.2464,0.2475,0.25,0.2542,0.2552,0.2536,0.2538,0.2601,0.2608,0.2615,0.2712,0.2651,0.2653,0.2655,0.2716,0.2717,0.2717,0,0,0,0,0,0,0.2327,0.2342,0.2451,0.24,0.2415,0.2468,0.2494,0.2501,0.2518,0.2563,0.2571,0.2549,0.2602,0.2611,0.2639,0.2712,0.2654,0.2657,0.2716,0.2717,0.2717,0.2841,0,0,0,0,0,0,0.2322,0.234,0.2357,0.2402,0.2419,0.2484,0.2495,0.2502,0.2534,0.2537,0.2577,0.2586,0.2604,0.2635,0.2642,0.2715,0.2659,0.2716,0.2716,0.2717,0.2837,0.2845,0.2853,0,0,0,0,0,0.2315,0.234,0.2357,0.2373,0.2443,0.2486,0.2492,0.2526,0.2533,0.2543,0.2561,0.2585,0.2642,0.2637,0.2645,0.2721,0.2716,0.2716,0.2717,0.2833,0.2844,0.2853,0,0,0,0,0,0,0.2274,0.2348,0.2368,0.2415,0.2454,0.2495,0.2512,0.253,0.255,0.2555,0.2583,0.2592,0.2654,0.2641,0.2635,0.273,0.2685,0.2687,0.2771,0.2781,0.2789,0.2799,0.2661,0,0,0,0,0,0.2274,0.231,0.2373,0.2407,0.243,0.2468,0.2489,0.2514,0.2543,0.2553,0.2591,0.2617,0.2656,0.268,0.2705,0.2747,0.2771,0.2795,0.2803,0.2811,0.2818,0.2916,0.2936,0.2718,0.2718,0.2718,0,0,0.2264,0.2313,0.2331,0.24,0.2429,0.2473,0.2481,0.252,0.2563,0.256,0.2624,0.2652,0.2669,0.2732,0.2758,0.2737,0.2882,0.2811,0.2818,0.2821,0.2919,0.2941,0.296,0.2718,0.2718,0.2718,0,0,0.2269,0.2309,0.2343,0.2385,0.2448,0.2474,0.249,0.2548,0.258,0.2634,0.2655,0.2713,0.276,0.2805,0.2827,0.2881,0.2923,0.2892,0.2954,0.305,0.3071,0.3089,0.315,0.3173,0.2897,0.2897,0.2897,0,0.2257,0.232,0.2355,0.2407,0.2454,0.248,0.2531,0.256,0.2624,0.2676,0.2667,0.2785,0.2802,0.2901,0.2921,0.2912,0.2955,0.2931,0.3069,0.3087,0.3104,0.3161,0.3185,0.2903,0.2902,0.2902,0.2901,0,0.2296,0.2351,0.2375,0.2454,0.2496,0.2543,0.2604,0.265,0.2694,0.2753,0.2865,0.2888,0.2968,0.2986,0.2974,0.3105,0.3095,0.3078,0.3061,0.3135,0.3188,0.3211,0.2912,0.2909,0.2908,0.2906,0,0,0.2265,0.2381,0.2392,0.244,0.2534,0.2567,0.2648,0.2746,0.2819,0.289,0.3006,0.3074,0.3113,0.3134,0.3146,0.3215,0.3368,0.32,0.3202,0.329,0.3577,0.3449,0.3461,0.3397,0.3401,0.3405,0.357,0,0.2291,0.2387,0.2448,0.2532,0.2586,0.2656,0.2732,0.2823,0.2905,0.3017,0.3087,0.3188,0.3162,0.3214,0.3289,0.3353,0.3433,0.3324,0.3465,0.3468,0.3372,0.3484,0.3237,0.3354,0.3592,0.3596,0.3598,0,0.2316,0.2383,0.2475,0.2593,0.2625,0.2677,0.2815,0.2892,0.3051,0.3127,0.3251,0.331,0.3438,0.3386,0.3566,0.3507,0.3553,0.3586,0.3593,0.3445,0.3383,0.3314,0.3386,0.3636,0.3633,0.363,0.3628,0,0.2273,0.24,0.2472,0.2515,0.265,0.271,0.2784,0.2937,0.3021,0.3208,0.3295,0.3455,0.3529,0.3641,0.3705,0.3668,0.3879,0.3839,0.3767,0.3758,0.3555,0.3519,0.3972,0.3972,0.3971,0.3971,0.397,0,0.2281,0.2335,0.2456,0.2494,0.2592,0.2694,0.2821,0.292,0.308,0.3195,0.3346,0.3442,0.3599,0.3723,0.378,0.3846,0.3956,0.3805,0.3808,0.3585,0.3551,0.3785,0.3762,0.3977,0.3976,0.3974,0.3973,0,0.2221,0.2304,0.2386,0.2523,0.2574,0.2639,0.2814,0.2894,0.3061,0.3212,0.3276,0.3471,0.3623,0.3751,0.3923,0.3914,0.4005,0.3991,0.3697,0.366,0.3801,0.3781,0.3956,0.3953,0.3951,0.3949,0.3947,0,0.2201,0.224,0.2379,0.242,0.2482,0.2606,0.2687,0.2867,0.2955,0.3209,0.3259,0.3455,0.3553,0.3757,0.3811,0.3913,0.3962,0.3709,0.3576,0.3822,0.3809,0.3792,0.3776,0.3369,0.3363,0.3358,0.3353,0,0.2158,0.2204,0.2264,0.2354,0.2431,0.2528,0.2655,0.2714,0.2925,0.3032,0.3159,0.3259,0.3465,0.3451,0.3585,0.3603,0.3675,0.3602,0.4002,0.3382,0.3274,0.3258,0.3261,0.3308,0.3312,0.3316,0.3318,0.332,0.2109,0.213,0.2204,0.2275,0.2356,0.2409,0.2443,0.2564,0.2657,0.2796,0.2957,0.3035,0.3167,0.3217,0.3191,0.3196,0.3421,0.3309,0.3324,0.3345,0.3218,0.3109,0.3088,0.3091,0.3094,0.3096,0.3099,0,0.2037,0.2068,0.2121,0.2182,0.2201,0.2295,0.2384,0.2386,0.2421,0.2595,0.2679,0.2564,0.2615,0.2742,0.2696,0.2741,0.2707,0.263,0.2571,0.2621,0.2664,0.25,0.2181,0.2178,0.2174,0.2171,0,0,0.2001,0.2004,0.2025,0.2016,0.2052,0.2045,0.2061,0.2075,0.2168,0.2182,0.2231,0.2488,0.2659,0.2356,0.2371,0.2259,0.2402,0.218,0.2932,0.2912,0.2949,0.3094,0.2902,0,0,0,0,0]},{"header":{"parameterUnit":"m.s-1","parameterCategory":2,"la1":30.2991,"la2":30.254,"lo1":-89.0895,"lo2":-89.0444,"dy":0.0017,"dx":0.0017,"nx":28,"ny":28,"refTime":"2025-02-10T03:00:00:Z","depth":"2","parameterNumber":3,"parameterNumberName":"V-component_of_CURRENTS"},"data":[0,0,0,0,0,0,0,0,0,0,0,0,0,0,0,0,0,0,0,0,0,0,0,0,0,0,0,0,0,0,0,0,0,0,0,0,0,0,0,0,0,0,0,0,0,0,0,0,0,0,0,0,0,0,0,0,0,0,-0.0136,-0.0136,0,-0.0164,-0.0165,-0.0165,-0.0219,-0.022,-0.0221,-0.0222,-0.0334,-0.0336,-0.0338,0,0,0,0,0,0,0,0,0,0,0,0,0,-0.0109,-0.0109,-0.0136,-0.0136,-0.0136,-0.0164,-0.0165,-0.0165,-0.0219,-0.022,-0.0221,-0.0223,-0.0333,-0.0336,-0.0338,0,0,0,0,0,0,0,0,0,0,0,0,0,-0.0127,-0.0109,-0.0136,-0.0167,-0.017,-0.0164,-0.0165,-0.0165,-0.0218,-0.022,-0.0222,-0.0223,-0.0333,-0.0335,-0.0338,-0.0323,0,0,-0.0347,-0.0349,0,0,0,0,0,0,0,0,-0.0125,-0.0127,-0.0162,-0.0165,-0.0168,-0.019,-0.0196,-0.0222,-0.0218,-0.0199,-0.0222,-0.0224,-0.0293,-0.0299,-0.0299,-0.0329,-0.0333,-0.0348,-0.0349,-0.0351,-0.0351,0,0,0,0,0,0,0,-0.0124,-0.0126,-0.0146,-0.0162,-0.0166,-0.0173,-0.0178,-0.0201,-0.0238,-0.0201,-0.0205,-0.0209,-0.0295,-0.0296,-0.0302,-0.0335,-0.0347,-0.035,-0.0352,-0.0353,-0.0359,-0.0357,0,0,0,0,0,0,-0.0121,-0.0125,-0.0146,-0.0147,-0.0151,-0.0173,-0.0178,-0.0181,-0.0236,-0.0245,-0.0207,-0.0211,-0.029,-0.0299,-0.0306,-0.0312,-0.0351,-0.0353,-0.0355,-0.036,-0.0358,-0.0356,0,0,0,0,0,0,-0.012,-0.0122,-0.0144,-0.0138,-0.0141,-0.0172,-0.0175,-0.0181,-0.0186,-0.024,-0.0251,-0.0207,-0.0291,-0.0302,-0.0316,-0.0317,-0.0355,-0.0357,-0.0362,-0.036,-0.0357,-0.0312,0,0,0,0,0,0,-0.0119,-0.0122,-0.0123,-0.0137,-0.0141,-0.0133,-0.0174,-0.018,-0.0186,-0.0191,-0.0243,-0.0255,-0.0294,-0.0311,-0.0319,-0.0321,-0.036,-0.0364,-0.0361,-0.0358,-0.0315,-0.0308,-0.0302,0,0,0,0,0,-0.0118,-0.0105,-0.0123,-0.0126,-0.0142,-0.0132,-0.0133,-0.0161,-0.0184,-0.0174,-0.0207,-0.0254,-0.0298,-0.0312,-0.0322,-0.0325,-0.0366,-0.0362,-0.0358,-0.0318,-0.0309,-0.0302,0,0,0,0,0,0,-0.009,-0.0109,-0.013,-0.0124,-0.0127,-0.0141,-0.0134,-0.0153,-0.0169,-0.018,-0.0233,-0.0246,-0.0263,-0.0284,-0.0299,-0.0312,-0.0339,-0.0337,-0.0305,-0.0297,-0.0291,-0.0284,-0.0362,0,0,0,0,0,-0.0084,-0.0084,-0.01,-0.0094,-0.0093,-0.0113,-0.0114,-0.0131,-0.0147,-0.0156,-0.0194,-0.0226,-0.0251,-0.0267,-0.0292,-0.0294,-0.0331,-0.0299,-0.0292,-0.0287,-0.0284,-0.0357,-0.0359,-0.0345,-0.0345,-0.0345,0,0,-0.0072,-0.0083,-0.0083,-0.0088,-0.0094,-0.0075,-0.0117,-0.011,-0.01,-0.0165,-0.0167,-0.0209,-0.0245,-0.0255,-0.0264,-0.0277,-0.0299,-0.0282,-0.0278,-0.0278,-0.0354,-0.0356,-0.0358,-0.0342,-0.0343,-0.0343,0,0,-0.0034,-0.0053,-0.0037,-0.0037,-0.0043,-0.0046,-0.0041,-0.0056,-0.0068,-0.0069,-0.0119,-0.0152,-0.0182,-0.0213,-0.0231,-0.0194,-0.0265,-0.0205,-0.017,-0.0241,-0.0244,-0.0247,-0.0257,-0.0262,-0.02,-0.02,-0.02,0,-0.0021,-0.0005,-0.0027,-0.0009,-0.0002,-0.0027,0.0001,-0.0004,-0.0024,-0.004,-0.0061,-0.0127,-0.016,-0.0185,-0.0172,-0.0184,-0.0222,-0.0204,-0.0237,-0.0241,-0.0245,-0.0255,-0.0261,-0.0197,-0.0197,-0.0198,-0.0198,0,0.0028,0.0039,0.0056,0.0068,0.0077,0.0099,0.0089,0.0087,0.0065,0.0039,0.0,-0.0049,-0.0098,-0.0106,-0.0128,-0.0168,-0.0182,-0.0227,-0.0266,-0.0244,-0.0255,-0.0262,-0.0193,-0.0194,-0.0195,-0.0196,0,0,0.0066,0.0085,0.009,0.0112,0.0116,0.0139,0.0153,0.0155,0.0161,0.0109,0.0096,0.0043,-0.0022,-0.0043,-0.0093,-0.014,-0.0184,-0.0191,-0.0196,-0.0214,-0.0311,-0.0291,-0.0297,-0.0258,-0.026,-0.0261,-0.0293,0,0.0114,0.017,0.0159,0.0221,0.0258,0.0232,0.0253,0.0241,0.022,0.0201,0.0116,0.0087,0.0013,-0.0012,-0.0083,-0.0158,-0.0206,-0.0168,-0.0316,-0.0319,-0.0319,-0.0307,-0.0304,-0.0332,-0.03,-0.0302,-0.0303,0,0.0167,0.0201,0.0263,0.0305,0.0317,0.0339,0.0362,0.0371,0.0324,0.0301,0.0221,0.0152,0.0074,0.0012,-0.0143,-0.0125,-0.0215,-0.0273,-0.0278,-0.0286,-0.0315,-0.0355,-0.0347,-0.0315,-0.0314,-0.0313,-0.0312,0,0.0226,0.0278,0.0334,0.0346,0.0383,0.0394,0.0406,0.0386,0.0414,0.035,0.0358,0.0216,0.0183,0.0014,-0.012,-0.0147,-0.0273,-0.0329,-0.0392,-0.0389,-0.0425,-0.0423,-0.0448,-0.0448,-0.0447,-0.0447,-0.0447,0,0.0289,0.0336,0.0363,0.0395,0.046,0.045,0.0497,0.0489,0.0492,0.0529,0.0396,0.0413,0.0176,0.0074,-0.0092,-0.0247,-0.0268,-0.0377,-0.0408,-0.0401,-0.0396,-0.0422,-0.0419,-0.0449,-0.0448,-0.0448,-0.0448,0,0.0348,0.0362,0.0435,0.0476,0.0489,0.053,0.0578,0.0626,0.0606,0.0653,0.0641,0.0567,0.0437,0.0221,0.0002,-0.0165,-0.0336,-0.0387,-0.0325,-0.0349,-0.0408,-0.0401,-0.0469,-0.0469,-0.0469,-0.0469,-0.0469,0,0.0385,0.0427,0.0495,0.0544,0.0562,0.0613,0.0663,0.0676,0.0737,0.0762,0.0809,0.0719,0.0664,0.0368,0.0059,-0.0225,-0.027,-0.0393,-0.0455,-0.0392,-0.0416,-0.0409,-0.0403,-0.0466,-0.0466,-0.0466,-0.0466,0,0.0458,0.0474,0.0531,0.0627,0.069,0.077,0.0836,0.0913,0.0936,0.0983,0.1044,0.1006,0.0736,0.0452,0.0077,-0.0123,-0.0359,-0.0398,-0.0381,-0.0453,-0.0391,-0.0413,-0.0407,-0.0465,-0.0465,-0.0465,-0.0465,-0.0465,0.0505,0.0557,0.0624,0.0715,0.0799,0.0911,0.0979,0.1069,0.117,0.1239,0.1215,0.1161,0.0848,0.0375,0.0033,-0.0325,-0.0313,-0.046,-0.046,-0.0461,-0.0447,-0.0389,-0.0455,-0.0455,-0.0455,-0.0455,-0.0455,0,0.0564,0.0618,0.0713,0.0816,0.0919,0.0949,0.1092,0.1161,0.1277,0.1349,0.1368,0.1087,0.0774,0.0427,-0.0113,-0.0431,-0.0482,-0.0518,-0.0527,-0.0525,-0.0524,-0.0515,-0.054,-0.0541,-0.0542,-0.0543,0,0,0.0596,0.0683,0.0728,0.0886,0.097,0.1099,0.1183,0.1289,0.1363,0.1424,0.1403,0.1333,0.0901,0.0506,0.0068,-0.0239,-0.0309,-0.0298,-0.0199,-0.0158,-0.0153,-0.0462,-0.0441,0,0,0,0,0]}],[{"header":{"parameterUnit":"m.s-1","parameterCategory":2,"la1":30.2991,"la2":30.254,"lo1":-89.0895,"lo2":-89.0444,"dy":0.0017,"dx":0.0017,"nx":28,"ny":28,"refTime":"2025-02-10T03:00:00:Z","depth":"4","parameterNumber":2,"parameterNumberName":"U-component_of_CURRENTS"},"data":[0,0,0,0,0,0,0,0,0,0,0,0,0,0,0,0,0,0,0,0,0,0,0,0,0,0,0,0,0,0,0,0,0,0,0,0,0,0,0,0,0,0,0,0,0,0,0,0,0,0,0,0,0,0,0,0,0,0,0.1613,0.1614,0,0.1695,0.1696,0.1696,0.1746,0.1747,0.1747,0.1748,0.1804,0.1806,0.1807,0,0,0,0,0,0,0,0,0,0,0,0,0,0.1493,0.1495,0.1612,0.1614,0.1615,0.1695,0.1696,0.1697,0.1746,0.1747,0.1747,0.1748,0.1804,0.1805,0.1807,0,0,0,0,0,0,0,0,0,0,0,0,0,0.1555,0.1495,0.1612,0.1651,0.1656,0.1695,0.1696,0.1697,0.1746,0.1747,0.1747,0.1748,0.1804,0.1805,0.1807,0.1803,0,0,0.1812,0.1813,0,0,0,0,0,0,0,0,0.1551,0.1559,0.1644,0.1649,0.1654,0.1713,0.1675,0.1732,0.1746,0.1709,0.1748,0.1748,0.1773,0.1777,0.1788,0.1806,0.1808,0.1812,0.1813,0.1814,0.1814,0,0,0,0,0,0,0,0.1547,0.1556,0.1643,0.1645,0.1651,0.1663,0.1672,0.1686,0.1734,0.1712,0.1717,0.173,0.1775,0.1786,0.1789,0.1809,0.1812,0.1813,0.1814,0.1815,0.193,0.1932,0,0,0,0,0,0,0.1541,0.1552,0.164,0.1645,0.1606,0.1665,0.1675,0.1691,0.1734,0.1742,0.1729,0.1732,0.1783,0.1787,0.1792,0.1881,0.1814,0.1815,0.1816,0.1928,0.1931,0.1933,0,0,0,0,0,0,0.1538,0.1548,0.1637,0.1602,0.1614,0.1666,0.1684,0.1693,0.1739,0.1748,0.1755,0.177,0.1784,0.1789,0.184,0.188,0.1816,0.1817,0.1926,0.1929,0.1932,0.2,0,0,0,0,0,0,0.1535,0.1547,0.157,0.1602,0.1616,0.1679,0.1684,0.1694,0.1744,0.175,0.1785,0.1789,0.1785,0.1838,0.1842,0.1881,0.1819,0.1923,0.1927,0.1931,0.1995,0.2005,0.2014,0,0,0,0,0,0.153,0.1554,0.157,0.1582,0.1642,0.168,0.1689,0.1726,0.1746,0.1769,0.1802,0.1789,0.1865,0.1841,0.1845,0.1885,0.1921,0.1926,0.1931,0.1991,0.2003,0.2014,0,0,0,0,0,0,0.1516,0.1562,0.1581,0.1619,0.1657,0.169,0.1723,0.1746,0.1791,0.1807,0.1814,0.182,0.1881,0.1876,0.1848,0.1932,0.1892,0.1898,0.1937,0.1948,0.1957,0.1944,0.182,0,0,0,0,0,0.1523,0.1554,0.1595,0.163,0.1654,0.1696,0.1723,0.1749,0.1786,0.1809,0.1832,0.1863,0.1897,0.1918,0.194,0.1983,0.198,0.2013,0.2022,0.203,0.2023,0.2068,0.208,0.1949,0.1949,0.1948,0,0,0.1527,0.1558,0.1578,0.163,0.1667,0.1702,0.1715,0.1767,0.1802,0.1806,0.1869,0.1898,0.1917,0.197,0.1996,0.1974,0.2069,0.2036,0.2042,0.2031,0.2074,0.2086,0.2097,0.1952,0.1951,0.1951,0,0,0.1543,0.1584,0.1613,0.1647,0.1707,0.173,0.1753,0.1806,0.1841,0.1902,0.1918,0.1969,0.2019,0.2038,0.2054,0.2127,0.2118,0.2146,0.218,0.2225,0.2235,0.2245,0.2264,0.2275,0.2149,0.2149,0.2149,0,0.1549,0.1589,0.1629,0.1664,0.1697,0.1747,0.1783,0.1823,0.1886,0.192,0.1933,0.2032,0.2047,0.2109,0.2138,0.2146,0.2166,0.2135,0.2236,0.2245,0.2253,0.2271,0.2281,0.2153,0.2153,0.2152,0.2152,0,0.1576,0.1619,0.1644,0.1702,0.1741,0.1784,0.1838,0.1889,0.1942,0.1981,0.207,0.2103,0.216,0.2181,0.2184,0.2257,0.2251,0.2243,0.2203,0.227,0.2285,0.2295,0.2159,0.2157,0.2156,0.2155,0,0,0.1557,0.1644,0.1656,0.1688,0.1766,0.1797,0.1867,0.1936,0.1991,0.2063,0.2131,0.2203,0.2236,0.2256,0.2275,0.231,0.2389,0.2309,0.2309,0.232,0.2484,0.2363,0.2362,0.2411,0.2413,0.2415,0.2472,0,0.1569,0.163,0.1676,0.1739,0.1774,0.1841,0.1897,0.1969,0.2042,0.2117,0.2179,0.2253,0.2262,0.2305,0.2347,0.2383,0.2418,0.2373,0.2423,0.2424,0.2302,0.237,0.2421,0.2479,0.2481,0.2483,0.2484,0,0.1572,0.1615,0.1675,0.1758,0.1782,0.183,0.1931,0.1991,0.2102,0.2166,0.2256,0.2304,0.2386,0.2376,0.2474,0.2455,0.2475,0.249,0.2492,0.2356,0.2321,0.2398,0.2501,0.25,0.2499,0.2498,0.2496,0,0.152,0.1611,0.1658,0.1687,0.1787,0.1837,0.1901,0.2011,0.2073,0.2205,0.2266,0.2368,0.2437,0.2486,0.2542,0.2521,0.2632,0.2601,0.2506,0.2497,0.2556,0.2545,0.2656,0.2656,0.2656,0.2656,0.2656,0,0.1493,0.1534,0.1643,0.1666,0.173,0.1818,0.19,0.1985,0.2106,0.2179,0.2293,0.2353,0.2475,0.2551,0.2571,0.2579,0.2666,0.2515,0.2508,0.2585,0.2577,0.2563,0.2552,0.2658,0.2658,0.2657,0.2657,0,0.142,0.1493,0.1549,0.1664,0.1704,0.1753,0.1889,0.1943,0.2081,0.2179,0.2225,0.2377,0.2477,0.2572,0.2661,0.261,0.2624,0.2602,0.2687,0.2683,0.2444,0.2436,0.2477,0.2473,0.247,0.2467,0.2465,0,0.1384,0.1406,0.1528,0.1561,0.1618,0.1708,0.1762,0.1913,0.1973,0.2166,0.2195,0.235,0.2435,0.2466,0.2571,0.2613,0.2589,0.2574,0.2488,0.2439,0.2429,0.2426,0.2422,0.246,0.2459,0.2458,0.2458,0,0.1307,0.1362,0.141,0.1483,0.1547,0.1606,0.1706,0.1735,0.1905,0.2044,0.2123,0.2187,0.2301,0.2378,0.2452,0.2467,0.2567,0.254,0.2545,0.2464,0.2419,0.2412,0.2412,0.2447,0.2448,0.2449,0.245,0,0.1252,0.1264,0.1337,0.139,0.1463,0.1491,0.1552,0.163,0.171,0.1927,0.1946,0.2117,0.2269,0.2303,0.2358,0.2387,0.234,0.2253,0.2272,0.2285,0.2201,0.2115,0.2047,0,0,0,0,0,0.1188,0.1197,0.1238,0.129,0.1358,0.1406,0.1509,0.1575,0.1733,0.1744,0.1847,0.1941,0.204,0.2123,0.2117,0.2274,0.2348,0.2256,0.2256,0.2386,0.2399,0.232,0,0,0,0,0,0,0.1145,0.1183,0.1202,0.1199,0.122,0.1282,0.1342,0.1446,0.1462,0.1632,0.1695,0.1835,0.1957,0.2037,0.2086,0.2115,0.2078,0.237,0.2366,0.2379,0.2391,0.2401,0.2324,0,0,0,0,0]},{"header":{"parameterUnit":"m.s-1","parameterCategory":2,"la1":30.2991,"la2":30.254,"lo1":-89.0895,"lo2":-89.0444,"dy":0.0017,"dx":0.0017,"nx":28,"ny":28,"refTime":"2025-02-10T03:00:00:Z","depth":"4","parameterNumber":3,"parameterNumberName":"V-component_of_CURRENTS"},"data":[0,0,0,0,0,0,0,0,0,0,0,0,0,0,0,0,0,0,0,0,0,0,0,0,0,0,0,0,0,0,0,0,0,0,0,0,0,0,0,0,0,0,0,0,0,0,0,0,0,0,0,0,0,0,0,0,0,0,-0.0031,-0.0031,0,-0.0054,-0.0054,-0.0054,-0.009,-0.0091,-0.0092,-0.0092,-0.0144,-0.0144,-0.0145,0,0,0,0,0,0,0,0,0,0,0,0,0,-0.0021,-0.0021,-0.0031,-0.0031,-0.0031,-0.0054,-0.0054,-0.0054,-0.009,-0.0091,-0.0092,-0.0092,-0.0143,-0.0144,-0.0145,0,0,0,0,0,0,0,0,0,0,0,0,0,-0.0033,-0.0021,-0.0031,-0.0052,-0.0054,-0.0054,-0.0054,-0.0054,-0.009,-0.0091,-0.0092,-0.0093,-0.0143,-0.0144,-0.0145,-0.0134,0,0,-0.0149,-0.015,0,0,0,0,0,0,0,0,-0.0032,-0.0033,-0.0048,-0.005,-0.0053,-0.007,-0.0069,-0.0082,-0.009,-0.0076,-0.0092,-0.0093,-0.0121,-0.0124,-0.0126,-0.0136,-0.0138,-0.0149,-0.015,-0.015,-0.0151,0,0,0,0,0,0,0,-0.0031,-0.0032,-0.004,-0.0049,-0.0051,-0.0061,-0.0064,-0.0072,-0.0094,-0.0078,-0.008,-0.0082,-0.0122,-0.0125,-0.0128,-0.0139,-0.0149,-0.015,-0.0151,-0.0151,-0.0148,-0.0148,0,0,0,0,0,0,-0.0027,-0.0031,-0.0039,-0.0041,-0.0044,-0.006,-0.0063,-0.0064,-0.0093,-0.0098,-0.0081,-0.0084,-0.0122,-0.0126,-0.013,-0.0109,-0.015,-0.0151,-0.0152,-0.0149,-0.0148,-0.0147,0,0,0,0,0,0,-0.0026,-0.0027,-0.0038,-0.0037,-0.0039,-0.006,-0.0059,-0.0064,-0.007,-0.0096,-0.0102,-0.0084,-0.0123,-0.0128,-0.0135,-0.0112,-0.0152,-0.0153,-0.015,-0.0149,-0.0148,-0.0074,0,0,0,0,0,0,-0.0026,-0.0027,-0.0026,-0.0036,-0.0039,-0.0031,-0.0059,-0.0063,-0.0069,-0.0072,-0.0099,-0.0105,-0.0124,-0.0133,-0.0136,-0.0114,-0.0154,-0.0151,-0.0149,-0.0148,-0.0077,-0.007,-0.0064,0,0,0,0,0,-0.0025,-0.0013,-0.0026,-0.0027,-0.0037,-0.003,-0.0032,-0.005,-0.0068,-0.0061,-0.0083,-0.0104,-0.0126,-0.0133,-0.0137,-0.0115,-0.0152,-0.015,-0.0148,-0.008,-0.0072,-0.0064,0,0,0,0,0,0,-0.0005,-0.0016,-0.003,-0.0021,-0.0025,-0.0036,-0.0031,-0.0046,-0.0057,-0.0065,-0.0094,-0.0101,-0.0099,-0.0117,-0.0125,-0.0111,-0.0142,-0.0141,-0.0089,-0.0081,-0.0075,-0.0056,-0.0155,0,0,0,0,0,-0.0001,0.0003,-0.0008,-0.0001,-0.0001,-0.0017,-0.0019,-0.003,-0.0041,-0.0048,-0.0067,-0.0085,-0.0093,-0.0096,-0.0109,-0.0098,-0.0124,-0.0088,-0.0081,-0.0076,-0.0063,-0.0082,-0.0075,-0.0141,-0.0141,-0.0141,0,0,0.0007,0.0003,0.0004,0.0003,-0.0003,0.0015,-0.002,-0.0016,-0.0001,-0.0051,-0.0039,-0.0065,-0.0087,-0.0077,-0.0077,-0.0089,-0.0072,-0.0073,-0.0068,-0.0059,-0.0079,-0.0073,-0.0067,-0.014,-0.014,-0.0141,0,0,0.0037,0.0025,0.004,0.0044,0.0041,0.0037,0.004,0.003,0.0025,0.0033,-0.0,-0.0012,-0.0021,-0.0031,-0.0037,-0.0002,-0.004,-0.0007,0.0047,0.0029,0.0035,0.0039,0.0009,0.001,0.0001,0.0001,0.0001,0,0.0047,0.0067,0.0047,0.0069,0.0081,0.0051,0.008,0.0078,0.0067,0.0072,0.0046,0.003,0.0005,0.0022,0.0033,0.0015,-0.0007,0.0021,0.0039,0.0043,0.0046,0.0014,0.0014,0.0005,0.0004,0.0004,0.0004,0,0.0091,0.0108,0.0122,0.014,0.015,0.0171,0.0167,0.0171,0.0158,0.0154,0.0158,0.012,0.0111,0.0102,0.008,0.0096,0.0068,0.0045,0.0021,0.0057,0.002,0.0019,0.001,0.0009,0.0008,0.0007,0,0,0.0114,0.0146,0.0151,0.0178,0.019,0.021,0.0234,0.0255,0.0278,0.0255,0.0277,0.0257,0.0224,0.0215,0.0178,0.0164,0.016,0.0123,0.012,0.0097,0.0113,0.0058,0.0051,0.0141,0.0142,0.0142,0.0076,0,0.0156,0.0215,0.0218,0.0282,0.0316,0.0307,0.0339,0.0351,0.0348,0.0359,0.032,0.0323,0.0272,0.0264,0.0244,0.0179,0.0163,0.018,0.0079,0.0075,0.0026,0.005,0.0144,0.0075,0.0075,0.0074,0.0074,0,0.0202,0.0238,0.0304,0.0364,0.0377,0.0411,0.0455,0.048,0.0484,0.048,0.0466,0.0425,0.0399,0.0346,0.0265,0.0278,0.0209,0.0155,0.015,0.0075,0.0019,0.0031,0.0072,0.0072,0.0072,0.0072,0.0073,0,0.0238,0.0303,0.036,0.038,0.0436,0.0467,0.0496,0.0517,0.0551,0.0551,0.0563,0.0517,0.0491,0.0408,0.0284,0.0279,0.0183,0.0158,0.0044,0.0038,0.0074,0.007,0.0109,0.0109,0.0109,0.0109,0.0109,0,0.0286,0.0336,0.0385,0.042,0.0501,0.0517,0.0596,0.0611,0.0639,0.0683,0.0626,0.0628,0.0507,0.0427,0.0314,0.0171,0.0202,0.0059,0.0023,0.0105,0.0105,0.0073,0.0069,0.0107,0.0107,0.0108,0.0108,0,0.0319,0.0347,0.0423,0.0491,0.0522,0.0578,0.0668,0.0718,0.0732,0.0778,0.0779,0.0719,0.0606,0.0467,0.032,0.0209,0.0077,0.0018,0.0112,0.008,-0.0064,-0.0063,-0.0107,-0.0109,-0.0111,-0.0113,-0.0115,0,0.0343,0.0383,0.0475,0.0523,0.0559,0.0647,0.0709,0.0762,0.0808,0.0827,0.0843,0.0755,0.0688,0.0446,0.0292,0.0065,0.0027,-0.0046,-0.0048,-0.0052,-0.0083,-0.0079,-0.0075,-0.0118,-0.0118,-0.0119,-0.0119,0,0.0388,0.0413,0.047,0.0567,0.0644,0.0737,0.0819,0.0862,0.0908,0.0929,0.0889,0.076,0.0626,0.0434,0.0252,0.0091,-0.0001,-0.0068,-0.0065,-0.0067,-0.0066,-0.0093,-0.0087,-0.0126,-0.0125,-0.0125,-0.0124,0,0.0413,0.0455,0.052,0.0606,0.07,0.0781,0.0836,0.0882,0.0929,0.0937,0.0922,0.0779,0.0706,0.0446,0.0283,0.0111,0.0064,0.0003,0.0002,0.0008,0.0049,0.0068,0.0027,0,0,0,0,0,0.0433,0.0474,0.0555,0.0643,0.0731,0.0785,0.0885,0.0927,0.0974,0.0949,0.0935,0.0805,0.0553,0.0454,0.0272,0.0232,0.0027,0.001,-0.0044,-0.0165,-0.0157,-0.0134,0,0,0,0,0,0,0.0444,0.0512,0.055,0.0648,0.0707,0.0811,0.0873,0.091,0.0895,0.0912,0.0787,0.0736,0.0499,0.0651,0.026,0.021,0.0144,-0.0097,-0.0102,-0.0169,-0.0162,-0.0156,-0.0129,0,0,0,0,0]}]]